Location: Misciano
(43.5000°N, 11.9500°E)
Time: 20:54:37
(UTC+00:00)

Cosmos 2322 Rocket - Pass Details

Date: 13 August 2020
Orbit: 831 x 852 km, 71.0° (Epoch: 21 September)

Event Time Altitude Azimuth Distance (km) Brightness Sun altitude
Rises 18:58:53 0° 346° (NNW) 3,419 6.0 -7.6°
Reaches altitude 10° 19:02:29 10° 9° (N) 2,483 4.9 -8.2°
Maximum altitude 19:05:44 15° 44° (NE) 2,130 4.2 -8.7°
Drops below altitude 10° 19:08:59 10° 79° (E) 2,482 4.2 -9.2°
Enters shadow 19:10:12 - 88° (E) 2,758 4.4 -9.4°
